Location: Shepherdstown, WV
(39.4326°N, 77.8042°W)
Time: 09:14:24
(UTC-04:00)

Vanguard 3 - All Passes

Search period start: 02 August 2021 00:00
Search period end: 12 August 2021 00:00
Orbit: 508 x 3261 km, 33.4° (Epoch: 02 August)

Date Brightness Start Highest point End Pass type
(mag) Time Alt. Az. Time Alt. Az. Time Alt. Az.
02 Aug - 00:49:29 10° W 01:06:47 39° SW 01:20:42 10° SSE visible
02 Aug - 03:14:17 10° WSW 03:18:55 12° SW 03:23:11 10° SW visible
02 Aug - 16:53:43 10° SSW 17:03:59 38° SE 17:19:24 10° E daylight
02 Aug - 19:03:53 10° WSW 19:17:53 66° SSE 19:37:30 10° E daylight
02 Aug - 21:16:56 10° W 21:34:20 71° S 21:53:43 10° ESE visible
02 Aug - 23:32:06 10° W 23:50:37 52° SSW 00:07:00 10° SE visible
03 Aug - 01:50:58 10° W 02:04:18 24° SW 02:15:21 10° S visible
03 Aug - 15:42:05 10° S 15:49:39 23° SE 16:00:14 10° E daylight
03 Aug - 17:50:02 10° SW 18:01:45 55° SSE 18:19:47 10° E daylight
03 Aug - 20:01:45 10° WSW 20:17:06 72° S 20:37:05 10° E daylight
03 Aug - 22:15:41 10° W 22:33:45 63° SSW 22:52:09 10° SE visible
04 Aug - 00:32:06 10° W 00:48:54 36° SW 01:03:18 10° SSE visible
04 Aug - 16:37:03 10° SSW 16:46:35 40° SE 17:01:34 10° E daylight
04 Aug - 18:47:16 10° WSW 19:00:20 67° SSE 19:19:45 10° E daylight
04 Aug - 21:00:02 10° W 21:16:34 69° S 21:36:15 10° ESE visible
04 Aug - 23:14:51 10° W 23:32:42 49° SSW 23:49:36 10° SE visible
05 Aug - 01:33:57 10° W 01:46:29 21° SW 01:57:26 10° S visible
05 Aug - 15:25:14 10° S 15:32:22 24° SE 15:42:43 10° E daylight
05 Aug - 17:33:30 10° SW 17:44:22 57° SSE 18:01:54 10° E daylight
05 Aug - 19:45:04 10° W 19:59:29 71° S 20:19:25 10° ESE daylight
05 Aug - 21:58:40 10° W 22:15:53 60° SSW 22:34:40 10° SE visible
06 Aug - 00:14:54 10° W 00:30:59 33° SW 00:45:39 10° SSE visible
06 Aug - 14:17:24 10° SE 14:18:52 10° SE 14:20:27 10° ESE daylight
06 Aug - 16:20:30 10° SSW 16:29:21 42° SSE 16:43:44 10° E daylight
06 Aug - 18:30:46 10° WSW 18:42:55 68° S 19:01:54 10° E daylight
06 Aug - 20:43:15 10° W 20:58:50 67° SSW 21:18:37 10° ESE visible
06 Aug - 22:57:46 10° W 23:14:47 46° SSW 23:32:00 10° SE visible
07 Aug - 01:17:17 10° W 01:28:39 19° SW 01:39:07 10° SSW visible
07 Aug - 15:08:34 10° S 15:15:14 25° SE 15:25:10 10° E daylight
07 Aug - 17:17:05 10° SW 17:27:08 58° SSE 17:43:58 10° E daylight
07 Aug - 19:28:31 10° W 19:41:58 70° S 20:01:38 10° ESE daylight
07 Aug - 21:41:46 10° W 21:58:04 56° SSW 22:17:00 10° SE visible
07 Aug - 23:57:55 10° W 00:13:05 30° SW 00:27:44 10° SSE visible
08 Aug - 13:59:32 10° SE 14:01:49 11° SE 14:04:23 10° ESE daylight
08 Aug - 16:04:06 10° SW 16:12:14 43° SSE 16:25:54 10° E daylight
08 Aug - 18:14:22 10° WSW 18:25:38 68° S 18:44:00 10° E daylight
08 Aug - 20:26:36 10° W 20:41:12 65° SSW 21:00:51 10° ESE visible
08 Aug - 22:40:50 10° W 22:56:53 42° SSW 23:14:09 10° SSE visible
09 Aug - 01:01:06 10° WSW 01:10:51 16° SW 01:20:14 10° SSW visible
09 Aug - 14:52:02 10° SSW 14:58:13 27° SE 15:07:39 10° E daylight
09 Aug - 17:00:46 10° WSW 17:10:02 60° SSE 17:26:03 10° E daylight
09 Aug - 19:12:04 10° W 19:24:34 69° S 19:43:46 10° ESE daylight
09 Aug - 21:25:01 10° W 21:40:17 52° SSW 21:59:08 10° SE visible
09 Aug - 23:41:11 10° W 23:55:13 27° SW 00:09:30 10° S visible
10 Aug - 13:42:17 10° SSE 13:44:52 12° SE 13:47:54 10° ESE daylight
10 Aug - 15:47:48 10° SW 15:55:16 45° SSE 16:08:06 10° E daylight
10 Aug - 17:58:03 10° WSW 18:08:28 68° S 18:26:03 10° E daylight
10 Aug - 20:10:02 10° W 20:23:38 61° SSW 20:42:55 10° ESE visible
10 Aug - 22:24:05 10° W 22:39:04 38° SSW 22:56:05 10° SSE visible
11 Aug - 00:45:44 10° WSW 00:53:07 13° SW 01:00:27 10° SSW visible
11 Aug - 14:35:37 10° SSW 14:41:20 28° SE 14:50:11 10° E daylight
11 Aug - 16:44:33 10° WSW 16:53:04 60° SSE 17:08:08 10° E daylight
11 Aug - 18:55:41 10° W 19:07:16 66° S 19:25:46 10° ESE daylight
11 Aug - 21:08:24 10° W 21:22:37 48° SSW 21:41:04 10° SE visible
11 Aug - 23:24:45 10° W 23:37:25 23° SW 23:50:53 10° S visible
